sat.trackr.live / text

‹ back to catalog

STARLINK-6097

NORAD 57105 · 2023-090E

PAYLOAD ACTIVE UNKNOWN

§ Identity

Operator
Country
US
Launch date
2023-06-23
Launch site
AFETR
Launch vehicle
Mass (kg)
RCS (m²)

Purposes: comms

External: N2YO · Heavens-Above · Gunter

§ Orbital elements

Epoch: 2026-05-24T21:18:59.491584Z

Period
94.27 min
Inclination
43.0060°
Eccentricity
0.0000057
Mean motion
15.27567738 rev/d
Perigee alt
483.0 km
Apogee alt
483.1 km
Semi-major
6,861.2 km
B*
-2.9894e-5
RAAN
211.4268°
Arg perigee
142.0218°
Mean anomaly
218.0638°
Rev number
16,198

§ Raw data

STARLINK-60971 57105U 23090E   26144.88818856 -.00001084  00000+0 -29894-4 0  99912 57105  43.0060 211.4268 0000057 142.0218 218.0638 15.27567738161981

JSON: /api/v1/satellites/57105 · /tle

For live sub-satellite position, see the globe view (requires WebGL).

§ Visibility from observer

Set your observer location to see the next 7 days of passes ≥ 10°. The values pass through the URL so the page stays shareable.

No JS? Fill the form by hand. The geolocation button needs JavaScript.